Regional Weather Roundup
Issued by NWS Sioux Falls, SD

Home | Current Version | Previous Version | Text Only | Print | Product List | Glossary Off
Versions: 1 2 3 4 5 6 7 8 9 10 11 12 13 14 15 16 17 18 19 20 21 22 23 24 25 26 27 28 29 30 31 32 33 34 35 36 37 38 39 40 41 42 43 44 45 46 47 48 49 50

000
ASUS43 KFSD 010602
RWRFSD

WEATHER ROUNDUP FOR SE SOUTH DAKOTA/SW MINNESOTA/NW IOWA
NATIONAL WEATHER SERVICE SIOUX FALLS SD
100 AM CDT FRI AUG 01 2014

NOTE: "FAIR" INDICATES FEW OR NO CLOUDS BELOW 12,000 FEET WITH NO
SIGNIFICANT WEATHER AND OR OBSTRUCTIONS TO VISIBILITY.


SDZ038>040-050-052>070-010700-
SOUTHEAST SOUTH DAKOTA

CITY           SKY/WX    TMP DP  RH WIND       PRES   REMARKS
CHAMBERLAIN    CLEAR     61  56  84 CALM      30.08R
6HR MIN TEMP:  61; 6HR MAX TEMP:  82;

HURON          CLEAR     61  57  87 CALM      30.06R
6HR MIN TEMP:  61; 6HR MAX TEMP:  81;

MADISON        FAIR      55  55 100 CALM      30.09R
MITCHELL       CLEAR     67  60  78 S5        30.07R
6HR MIN TEMP:  67; 6HR MAX TEMP:  83;

SIOUX FALLS    CLEAR     61  59  93 SW3       30.08R
6HR MIN TEMP:  59; 6HR MAX TEMP:  73;

WINNER         FAIR      67  58  72 SE6       30.09R
YANKTON        CLEAR     64  61  88 S3        30.07F
$$

MNZ071-072-080-081-089-090-097-098-010700-
SOUTHWEST MINNESOTA

CITY           SKY/WX    TMP DP  RH WIND       PRES   REMARKS
FAIRMONT       CLEAR     63  55  77 W3        30.06S
JACKSON        CLEAR     61  57  88 CALM      30.08S
LUVERNE        CLEAR     59  55  88 CALM      30.08S
MARSHALL       CLEAR     59  54  82 CALM      30.05R
6HR MIN TEMP:  59; 6HR MAX TEMP:  79;

MONTEVIDEO     CLEAR     63  55  77 CALM      30.05S
PIPESTONE      CLEAR     61  55  82 CALM      30.08S
REDWOOD FALLS  CLEAR     65  59  81 CALM      30.05R
TRACY          CLEAR     64  58  83 SW6       30.07S
WINDOM         CLEAR     57  55  94 CALM      30.07S
WORTHINGTON    CLEAR     61  57  88 SW6       30.09S
$$

IAZ001>003-012>014-020>022-031-032-NEZ013-014-SDZ071-010700-
NORTHWEST IOWA

CITY           SKY/WX    TMP DP  RH WIND       PRES   REMARKS
CHEROKEE       CLEAR     57  57  99 CALM      30.08S
DENISON        CLOUDY    61  61 100 CALM      30.08R
ESTHERVILLE    CLEAR     60  58  92 SW6       30.06S
LE MARS        CLEAR     59  57  94 CALM      30.08S
ORANGE CITY    CLEAR     63  59  88 CALM      30.08S
SHELDON        CLEAR     55  55 100 CALM      30.07S
SIOUX CITY     PTCLDY    59  57  93 CALM      30.07S
6HR MIN TEMP:  59; 6HR MAX TEMP:  73;

SPENCER        CLEAR     58  56  93 W3        30.07S
6HR MIN TEMP:  58; 6HR MAX TEMP:  77;

STORM LAKE     CLEAR     59  59 100 SW3       30.09S
$$

ABBREVIATIONS USED IN REMARKS
   TC - TEMPERATURE IN CELSIUS
  WCI - WIND CHILL INDEX
   HX - HEAT INDEX
  VSB - VISIBILITY




USA.gov is the U.S. government's official web portal to all federal, state and local government web resources and services.